Theta_e
291 292 292 293 292 291 291 291 291 291 293 293 290 289 292 293 286 284 290 292 290 292 295 297 297 298 298 299 300 301 303 304 304 305 304 303 304 304 304 305 305 305 305 306 307 307 307 306 306 307 306 307 309 309 309 309 310 310 311 311 310 309 310 311 312 314 316 318 321 322 323 323 323 324 325 326 325 325 324 324 323 323 322 321 320 319 318
290 291 292 293 291 291 291 291 292 292 292 292 293 293 293 293 291 292 292 292 291 294 295 297 300 300 300 300 302 304 303 303 304 303 303 302 303 303 303 303 304 304 304 305 305 307 307 306 305 304 306 306 306 308 308 308 309 309 310 310 309 309 309 310 310 311 314 317 319 320 321 321 322 323 323 324 324 324 324 323 323 323 322 321 318 318 316
288 290 291 291 291 291 289 291 291 292 292 292 293 293 293 293 292 293 292 290 289 296 298 297 300 301 301 302 301 302 303 303 303 302 302 302 303 302 302 303 303 303 304 304 305 305 305 306 306 305 306 306 307 307 308 308 307 308 308 308 308 308 308 308 310 310 310 313 316 318 319 320 321 321 321 321 322 322 323 322 323 321 318 317 316 318 315
283 288 288 289 290 290 289 289 290 290 290 288 290 288 293 291 289 291 290 287 288 295 298 299 299 300 299 298 299 301 303 303 303 302 302 302 302 302 302 302 302 303 302 303 303 304 304 305 304 305 305 305 305 306 307 307 307 308 309 309 308 308 308 308 308 308 309 310 312 315 318 318 319 321 321 321 320 320 321 321 320 318 318 315 315 314 314
282 288 289 288 287 286 283 283 288 290 291 291 293 294 294 294 293 288 286 287 294 297 298 297 298 299 298 298 299 302 302 303 303 302 302 303 302 301 301 301 301 301 301 302 304 304 303 303 303 304 304 304 305 307 307 308 308 308 308 308 308 308 309 308 308 309 308 309 310 312 315 317 318 320 319 319 319 319 318 319 318 317 315 316 316 316 314
281 286 287 288 283 276 278 291 295 294 291 291 290 290 292 294 295 292 295 294 297 298 297 296 296 298 300 301 302 303 303 302 302 302 303 302 302 301 301 301 300 302 303 304 304 305 305 306 306 307 307 306 308 309 308 308 308 308 307 308 308 308 309 309 309 309 309 309 309 310 313 316 318 317 317 317 319 319 318 318 317 317 316 315 315 314 311
281 284 284 279 273 277 289 294 294 294 293 292 291 292 293 294 295 296 294 294 296 297 298 298 300 300 300 300 300 300 300 301 302 302 302 302 301 301 301 301 302 303 303 303 304 304 305 305 306 306 306 307 307 307 307 307 307 307 308 307 308 308 309 309 310 309 309 309 309 310 312 314 316 316 316 316 317 317 317 317 316 315 314 314 313 311 310
284 281 280 272 275 286 291 293 294 295 293 293 292 289 292 293 294 296 293 295 296 297 297 298 299 299 299 299 299 299 300 300 301 301 302 302 302 301 302 302 303 303 303 303 303 304 306 305 305 305 305 306 306 306 307 307 307 307 307 307 307 308 308 309 309 310 310 309 310 310 311 313 314 315 316 316 315 316 317 317 317 316 313 312 311 310 310
278 280 280 279 287 286 288 288 289 292 288 289 288 283 288 292 294 294 294 294 294 295 296 297 298 298 298 296 296 298 298 299 300 301 301 302 302 303 303 303 303 304 304 304 304 305 306 305 305 305 306 306 306 306 306 306 306 306 306 306 305 306 307 308 309 310 310 310 310 310 311 312 313 315 315 315 315 316 315 316 315 314 312 311 310 310 308
284 280 278 279 278 275 280 288 292 295 295 295 294 290 286 293 293 294 294 292 293 294 295 296 296 297 294 291 293 296 298 299 299 299 300 301 301 301 301 302 302 303 304 304 304 304 304 305 306 306 306 306 306 306 306 305 305 305 304 304 305 305 307 308 309 309 309 309 309 310 311 312 313 314 315 315 314 314 314 315 315 313 311 310 311 308 306
282 280 276 276 274 278 286 288 291 293 293 296 295 288 283 290 292 293 293 292 293 294 293 294 296 293 289 289 291 294 297 298 298 298 298 299 299 300 300 300 301 302 303 303 303 303 303 303 305 306 306 306 304 304 305 304 304 304 304 304 305 305 307 308 309 310 310 310 310 310 311 312 313 314 314 313 314 314 314 315 315 315 310 309 308 307 307
280 279 277 276 280 279 286 290 291 293 294 293 290 276 278 287 291 292 293 292 293 294 294 294 294 291 287 289 293 296 297 298 298 299 298 299 299 299 300 301 302 301 302 301 302 303 303 303 305 305 304 304 303 303 304 304 304 304 304 305 305 306 307 308 309 309 310 310 310 311 311 312 313 313 314 314 314 314 314 314 314 314 310 307 305 306 305
280 279 278 280 282 287 290 289 292 292 295 291 278 274 280 288 290 291 292 292 293 294 293 295 291 294 294 295 296 298 298 297 297 299 300 299 299 299 300 301 300 301 301 301 300 302 302 303 304 304 304 303 303 302 303 303 303 304 305 304 305 306 307 307 308 309 309 310 310 311 313 313 313 313 313 313 314 314 314 314 312 310 307 305 305 305 304
278 279 277 278 281 286 290 290 292 293 287 277 276 284 289 290 289 291 292 292 293 294 293 294 294 294 295 296 297 297 297 297 297 298 298 299 299 300 301 301 301 301 301 302 303 302 303 303 303 303 303 302 302 302 303 302 304 305 305 304 305 306 306 306 307 308 309 310 311 312 313 312 312 312 313 313 313 312 310 309 307 304 302 302 301 302 302
281 279 276 275 272 283 290 290 288 290 280 282 287 289 291 291 291 291 292 293 293 293 293 294 294 294 294 295 295 296 296 296 296 297 297 298 297 298 299 300 300 300 300 301 301 301 302 303 304 303 303 302 302 302 302 303 305 305 305 305 305 306 306 306 307 308 309 310 310 312 313 312 311 311 311 311 310 308 307 305 303 301 301 301 300 299 300
276 276 273 274 282 287 291 289 282 287 288 290 291 290 289 292 292 292 292 292 293 293 293 293 293 293 293 293 294 294 294 295 297 298 298 298 298 298 299 299 299 298 298 299 301 302 302 303 303 304 303 302 301 301 302 304 305 305 305 305 305 305 305 307 307 307 308 309 310 312 312 311 311 310 311 308 304 303 302 300 299 298 300 299 298 297 297
279 277 280 285 287 289 290 291 289 291 293 293 292 292 291 291 291 293 291 291 293 294 293 293 293 293 294 294 295 294 295 295 296 296 297 297 297 297 297 297 298 299 298 299 300 301 302 303 303 303 304 303 302 301 303 305 304 304 305 305 304 305 306 306 306 307 308 309 310 310 310 310 308 305 302 301 300 300 300 299 299 298 298 297 297 297 297
287 287 287 289 288 289 290 291 291 290 291 292 293 292 290 291 292 293 291 292 293 293 294 292 292 292 293 294 294 295 296 296 296 297 297 297 298 298 298 298 299 299 300 300 300 300 301 303 303 304 303 303 301 302 304 304 304 305 305 304 304 304 305 305 305 305 306 307 308 308 308 307 304 302 301 300 299 300 299 298 298 299 298 298 296 294 297
280 276 287 287 287 288 289 289 290 292 292 291 292 291 291 292 292 292 293 293 293 293 293 293 292 292 293 293 294 295 294 295 295 296 296 297 297 298 297 298 299 300 300 299 300 300 300 302 302 302 302 302 302 302 301 303 303 303 302 302 302 303 303 304 305 305 305 305 306 306 303 302 302 301 301 300 300 299 299 298 298 297 297 294 294 294 295
279 279 285 287 288 289 290 289 289 289 290 291 292 292 292 291 292 292 292 293 292 293 292 293 292 292 293 293 293 293 294 294 295 295 295 296 297 298 299 300 300 300 299 299 299 298 299 300 300 301 301 301 301 302 302 303 303 302 302 301 302 302 303 303 303 305 305 296 298 301 300 301 300 300 299 299 300 299 298 298 296 295 295 295 294 295 295
283 285 286 286 288 288 288 289 290 291 290 290 291 291 291 291 290 291 292 292 292 292 292 293 292 291 292 293 293 293 293 294 294 294 295 296 297 298 298 299 299 299 299 298 298 298 298 300 300 300 301 301 302 302 302 302 303 302 301 301 301 302 302 303 304 303 305 301 300 299 299 299 300 300 299 298 299 300 299 298 296 295 296 299 298 298 298
278 280 283 286 279 280 285 288 289 289 290 290 290 290 290 290 290 291 290 291 292 292 293 292 292 291 291 293 294 294 294 294 295 295 296 297 297 298 300 300 300 300 298 298 299 298 298 300 299 299 300 301 301 302 302 302 302 301 301 301 302 302 302 302 303 304 304 301 300 299 299 299 296 294 288 290 298 301 299 291 291 292 293 298 298 299 297
278 284 286 286 286 286 287 288 290 292 293 292 291 290 290 291 291 292 292 291 292 293 293 293 294 293 294 294 295 294 294 295 296 296 297 297 297 298 299 299 298 298 298 298 298 297 298 299 299 299 299 300 300 301 301 301 301 301 301 301 301 301 301 301 301 303 302 300 301 299 298 298 296 294 295 292 287 287 289 290 289 289 288 288 288 290 296
286 288 288 289 288 285 287 289 291 291 292 291 290 291 292 293 293 293 293 293 291 292 294 295 295 295 294 295 295 295 295 295 296 296 297 298 298 297 297 297 297 297 297 297 297 297 298 298 299 299 299 300 300 300 301 301 302 302 301 301 301 301 301 302 301 300 301 300 299 298 298 298 297 296 294 293 293 288 287 288 288 288 287 287 288 288 287
284 288 289 289 289 289 290 290 291 291 292 293 291 291 293 292 292 293 291 291 292 292 292 293 294 294 294 294 294 294 294 294 295 295 295 295 295 296 296 296 295 296 296 297 297 297 298 298 298 298 298 298 300 301 302 303 303 302 303 302 301 302 302 302 300 298 298 298 296 296 297 297 297 296 294 293 292 291 290 288 287 287 287 287 287 287 287
290 290 290 290 290 289 290 291 291 291 291 292 291 292 293 294 294 294 293 292 292 292 292 292 292 293 294 293 293 293 293 294 294 294 295 294 295 295 295 295 296 296 296 297 296 296 297 297 297 297 296 298 300 302 304 304 303 303 303 302 301 301 302 300 299 299 300 299 298 298 299 298 297 296 294 294 293 292 291 291 290 288 288 287 286 287 286
291 291 289 288 287 288 290 288 287 291 292 292 292 291 292 293 293 294 294 293 293 293 293 293 293 294 294 294 293 293 292 292 293 293 293 293 293 294 295 296 296 296 295 295 295 294 292 293 294 295 297 299 300 301 302 302 303 302 303 303 301 292 290 293 299 298 300 299 301 300 298 296 295 295 296 296 293 293 293 291 292 291 292 291 289 289 289
290 290 290 285 283 285 287 290 291 291 291 291 291 291 292 292 292 291 291 291 291 292 293 293 293 292 291 292 291 291 291 291 291 292 292 292 293 294 294 295 295 295 294 293 293 293 292 295 297 297 297 299 300 300 301 301 301 300 298 298 297 297 296 295 297 298 297 296 297 297 296 294 294 293 294 294 294 294 293 294 293 293 292 292 291 287 286
289 289 291 290 289 290 290 291 291 291 291 291 293 293 293 292 291 291 291 292 293 292 291 291 291 291 290 290 290 290 290 290 289 290 290 291 292 292 293 293 294 293 293 292 292 294 296 296 296 296 296 296 298 298 299 299 298 297 297 297 297 296 295 295 296 296 296 296 295 295 290 292 293 294 294 295 295 296 295 295 294 294 294 292 292 291 290
288 289 289 289 290 291 290 290 289 290 291 292 291 292 293 292 290 289 289 290 290 289 289 289 289 288 289 289 289 288 287 287 286 287 287 288 288 289 289 290 291 292 292 293 295 296 297 297 297 297 297 297 298 299 298 298 297 297 296 296 296 296 295 296 296 296 296 297 296 290 293 294 296 295 295 296 295 295 294 295 293 293 293 294 290 292 291
288 289 289 289 290 290 289 289 289 289 290 290 290 290 290 290 288 287 287 287 287 287 288 287 287 288 288 287 287 287 286 286 286 286 286 286 286 286 287 291 291 290 291 291 293 294 295 296 296 297 299 299 300 299 298 298 297 296 296 296 295 288 288 288 290 296 296 294 294 295 295 295 295 294 293 295 295 294 295 294 293 294 293 294 295 294 293
288 288 288 288 289 289 289 289 288 288 287 288 287 286 286 286 285 285 286 286 287 287 286 287 286 286 286 287 286 286 286 285 285 285 286 286 285 285 286 289 290 289 290 290 290 290 291 294 295 298 300 300 300 300 299 298 297 297 297 292 296 296 291 288 292 292 293 293 294 295 294 295 295 295 294 295 296 294 294 294 294 293 294 294 293 295 293
286 285 285 286 287 288 287 287 287 286 286 286 285 286 287 287 287 287 287 287 287 287 286 286 286 286 286 286 286 285 285 285 285 285 285 285 285 286 287 289 289 288 288 289 290 289 289 290 294 297 298 299 299 300 300 298 298 297 296 296 295 294 291 290 290 294 293 294 294 294 296 295 295 295 295 296 296 295 295 294 295 293 294 294 294 292 289
286 285 286 286 285 284 284 285 286 285 285 286 287 287 287 287 287 287 287 287 286 286 285 285 286 286 285 285 285 285 285 284 283 283 283 284 285 286 288 288 288 288 287 287 288 289 289 290 294 296 297 298 299 299 300 300 298 297 297 295 294 293 293 293 293 295 295 294 294 294 295 294 296 297 295 296 296 296 295 294 293 293 293 293 293 289 283
290 290 290 288 288 288 288 287 286 285 285 284 285 286 287 287 287 286 286 286 285 285 285 286 285 285 285 285 284 284 284 283 283 283 283 284 285 286 288 288 288 288 287 286 288 289 290 290 291 293 294 295 296 297 298 299 299 298 297 297 295 295 295 294 295 295 295 296 297 296 295 295 294 292 294 296 296 294 294 293 293 292 292 292 292 290 287
290 289 288 287 287 288 287 287 286 286 286 285 285 285 286 286 286 286 286 285 286 286 285 285 285 285 284 284 284 283 283 284 284 284 284 284 285 286 286 286 286 286 286 286 287 289 291 290 285 285 292 292 293 294 295 296 297 296 295 295 294 294 293 293 294 295 295 296 294 293 293 290 292 294 295 295 295 295 293 292 293 292 292 292 291 291 290
290 289 288 288 288 289 288 288 288 288 287 286 286 287 287 287 287 287 286 286 285 285 285 285 284 284 283 284 284 284 284 284 284 284 284 285 285 284 284 284 284 284 284 283 284 288 290 291 286 286 290 292 292 293 290 287 297 297 297 296 296 295 294 294 295 295 294 294 293 293 291 292 294 294 293 295 293 292 292 292 290 291 290 290 290 290 290
289 288 288 288 289 289 289 289 289 289 289 287 287 288 288 288 288 287 286 286 286 285 285 285 284 285 285 285 285 284 284 284 284 284 285 285 284 283 283 282 282 283 282 282 285 287 288 289 286 289 291 291 292 292 289 285 288 296 297 296 295 294 293 294 294 293 293 294 292 294 294 293 293 293 293 293 293 291 290 290 290 290 289 289 289 288 289
287 288 288 289 289 289 289 289 290 290 289 288 287 288 288 288 287 288 287 287 287 287 286 285 286 286 285 285 284 284 284 284 284 284 284 285 285 284 282 282 283 283 283 285 286 286 286 288 291 291 291 291 292 292 289 287 288 297 297 296 295 294 292 292 292 291 291 291 292 292 292 291 291 291 291 291 290 288 286 286 287 287 289 290 289 288 287
287 287 287 288 287 288 288 288 288 288 289 290 288 287 288 288 287 287 286 286 286 286 286 286 285 285 285 285 286 284 284 284 284 284 284 285 285 284 284 283 284 285 285 284 286 286 285 285 288 291 291 291 292 293 290 289 290 294 295 295 294 293 293 293 293 292 292 292 291 288 290 289 289 288 288 289 289 288 288 288 287 288 288 288 287 287 286
287 287 288 288 288 289 288 287 287 288 289 288 288 289 288 288 287 286 286 286 287 287 286 285 285 285 286 286 286 286 286 285 285 284 283 283 284 284 282 281 283 284 285 285 285 285 285 284 286 288 290 291 290 288 292 289 293 294 294 294 293 293 292 291 291 291 290 290 289 290 289 289 288 288 287 288 288 288 287 287 287 287 288 287 287 287 286
287 288 288 288 288 288 288 289 289 288 288 288 288 288 288 288 287 286 286 286 287 287 286 286 284 285 286 286 287 287 287 287 286 285 284 282 282 283 282 282 284 284 284 285 285 284 285 285 285 284 287 289 290 285 286 291 293 292 292 292 292 291 291 290 290 290 290 290 290 289 288 289 288 288 287 287 286 286 286 286 287 286 286 286 286 286 286
288 288 288 288 288 289 289 289 288 287 286 287 288 288 288 288 287 286 286 285 286 286 286 286 286 285 286 286 286 285 285 287 287 286 285 285 284 284 284 284 285 284 284 285 285 285 284 284 284 285 284 286 288 285 286 291 291 291 290 290 289 290 289 289 289 289 289 289 288 288 288 288 288 288 287 287 286 287 286 287 286 286 286 286 285 285 285
288 289 289 289 289 290 290 289 288 288 286 287 288 288 288 287 287 286 285 285 284 285 285 285 286 286 285 285 284 284 284 284 285 286 286 285 285 285 285 285 285 284 283 285 286 285 284 284 284 284 283 284 284 285 290 291 291 291 290 289 289 289 289 288 288 288 289 288 288 288 287 286 287 287 287 287 286 286 285 285 285 285 285 286 286 285 285
289 289 290 290 290 290 289 288 287 287 287 288 287 287 288 287 286 286 286 285 284 284 284 284 284 285 285 286 284 284 284 285 285 285 284 283 282 282 285 284 284 284 284 284 286 286 285 284 283 283 283 284 284 285 290 290 289 289 290 289 288 288 287 287 287 287 287 287 287 287 286 287 287 286 286 286 285 285 285 285 285 285 285 284 284 284 283
290 290 290 287 289 288 288 288 288 288 288 287 287 286 287 287 286 286 286 285 285 285 285 284 284 284 284 285 286 286 285 285 285 286 285 284 282 283 284 283 284 283 283 283 285 286 285 282 282 282 283 284 285 288 289 289 288 288 288 288 288 287 287 287 287 287 286 286 286 287 287 287 287 287 287 287 286 285 284 283 284 285 284 283 283 282 282
290 290 289 289 288 288 289 289 288 288 287 286 285 285 286 286 286 286 286 285 285 285 285 285 285 284 285 284 284 285 284 284 284 285 285 286 285 284 283 282 282 282 283 284 284 283 283 283 283 282 283 284 285 289 288 288 287 287 287 286 286 286 286 286 287 286 286 286 285 285 285 286 287 287 286 285 285 284 284 283 283 283 283 282 282 281 281
289 288 289 288 288 289 289 288 288 287 286 284 286 286 286 286 286 286 285 285 285 285 285 285 284 285 285 285 285 285 285 284 282 282 285 285 285 285 285 285 283 282 283 283 283 282 281 281 282 283 283 284 287 288 287 287 287 286 286 286 286 285 285 286 286 286 286 285 286 286 286 287 286 286 285 285 284 283 283 283 282 281 281 281 281 281 280
290 289 289 290 289 289 288 288 287 286 286 287 286 286 285 286 286 286 285 285 285 285 284 285 284 284 284 284 284 285 285 285 284 282 284 284 284 284 284 283 281 282 284 285 285 285 282 281 282 283 283 284 287 287 286 286 285 285 285 285 285 285 284 284 284 284 285 284 285 285 285 284 284 284 284 284 283 282 281 281 280 280 279 280 280 280 280
291 291 290 289 289 289 289 288 288 288 287 286 287 287 286 287 286 286 285 286 285 284 285 285 285 284 285 285 285 285 285 285 285 285 285 284 284 283 284 282 282 281 282 284 285 285 283 282 282 283 284 286 286 285 285 285 285 285 285 284 284 284 282 282 282 282 283 283 283 283 283 283 283 282 282 282 281 281 281 281 282 280 279 280 279 279 279
290 290 290 289 290 290 290 290 290 289 288 288 288 287 286 286 285 284 285 285 286 284 284 284 284 284 285 285 285 285 285 285 284 282 285 284 284 282 281 283 283 282 282 283 284 285 285 285 284 284 285 285 285 284 284 284 284 283 282 283 282 282 281 281 281 282 283 283 283 282 282 282 282 282 282 281 280 280 280 280 281 281 280 280 279 279 279
291 291 291 291 291 290 290 290 289 289 290 289 289 288 287 286 286 286 285 282 285 285 284 284 283 284 284 285 284 284 284 284 284 284 283 283 284 284 283 282 283 282 283 283 284 284 285 284 282 281 282 284 284 283 282 281 283 283 283 282 281 281 279 279 280 280 280 280 281 280 280 280 281 282 281 280 280 280 280 280 280 280 280 280 279 278 279
Wind_Speed
14 13 13 12 10 11 13 15 13 12 12 13 15 13 15 15 12 14 9 10 10 10 10 10 9 8 10 9 11 9 9 10 10 10 10 9 8 6 5 4 4 4 4 5 4 4 4 3 4 3 3 3 3 3 3 4 4 5 4 4 3 4 4 5 6 4 4 4 5 6 7 8 9 11 12 12 12 12 11 11 11 12 13 14 14 15 15
14 14 15 15 16 15 15 15 15 15 16 16 16 17 16 17 18 17 15 13 11 11 10 11 8 6 9 10 7 7 10 11 11 11 11 10 8 7 6 5 4 3 4 3 4 3 3 4 5 5 4 4 3 2 2 3 3 4 3 3 3 4 3 3 3 4 4 4 5 6 7 7 8 9 10 11 11 12 13 12 11 12 12 12 12 10 12
14 14 15 16 18 17 19 18 18 19 17 17 16 15 16 17 18 16 15 12 11 10 14 17 8 2 4 4 9 10 10 10 11 11 10 8 7 6 5 5 4 3 2 3 2 2 3 4 5 5 4 4 4 4 4 5 6 5 6 5 3 3 3 3 3 4 5 5 5 6 6 7 7 8 9 9 10 11 11 12 11 8 12 11 9 8 11
12 12 14 16 17 19 21 20 19 20 19 17 15 13 13 12 13 13 11 13 13 11 13 14 11 8 12 12 11 9 8 9 10 10 9 9 8 6 6 4 4 3 2 3 2 3 4 4 4 4 5 6 5 5 6 7 6 6 6 6 6 6 6 6 6 6 5 6 6 6 6 7 7 7 7 8 9 8 8 9 9 10 11 14 15 14 12
13 13 14 14 11 12 14 14 16 17 17 18 16 17 16 16 14 12 13 15 10 4 2 10 11 10 9 10 8 8 8 7 9 10 9 8 7 6 4 4 3 2 2 2 2 3 3 3 4 5 5 5 5 5 5 5 5 5 5 6 6 5 6 7 7 7 7 7 7 7 7 7 6 6 6 7 8 8 8 9 12 12 12 13 13 13 11
11 10 8 7 9 12 10 5 6 5 7 8 13 13 14 12 8 11 9 8 4 6 5 5 10 3 3 5 5 2 3 7 7 7 7 7 6 5 3 2 1 2 2 3 3 3 4 3 4 5 5 5 4 4 4 5 5 6 7 6 6 6 7 7 7 7 7 7 7 7 8 7 6 6 6 7 7 7 7 9 11 11 12 13 12 11 10
10 8 7 9 12 11 6 2 5 3 4 6 8 7 4 6 7 7 10 10 8 3 3 2 4 5 5 4 4 5 3 1 4 6 7 7 6 4 2 1 2 3 3 3 4 4 4 4 5 4 4 4 5 5 5 6 6 6 6 7 7 7 7 7 7 7 7 7 7 8 8 8 7 6 6 6 7 7 7 9 10 10 10 11 10 10 11
9 9 8 10 8 7 3 5 3 2 3 3 6 5 3 5 5 5 5 2 2 4 3 2 3 3 5 5 5 4 4 3 1 4 7 8 7 4 1 3 4 4 4 5 5 5 4 5 5 5 5 5 5 6 6 6 7 8 8 8 9 8 8 7 7 7 7 8 8 8 8 8 7 7 6 6 7 7 7 8 9 9 8 8 9 10 9
10 9 11 12 11 11 13 7 5 3 3 2 4 8 2 5 4 6 4 1 2 2 1 2 1 2 5 6 5 4 5 5 4 3 3 3 3 3 3 4 4 4 5 5 5 5 6 6 6 6 6 6 7 7 8 8 8 9 9 9 10 10 9 9 8 8 8 8 8 8 8 8 8 7 7 7 7 7 8 9 9 9 9 8 9 9 9
8 10 11 10 10 11 2 3 3 3 1 3 4 4 8 5 3 4 3 2 1 3 2 2 3 4 7 9 5 4 5 5 4 4 2 1 2 3 4 5 5 5 6 6 6 6 7 7 7 7 7 7 7 8 8 8 9 9 9 10 10 10 9 9 9 9 9 9 9 8 8 8 8 7 7 7 8 8 10 10 10 9 9 9 9 9 11
8 9 10 10 11 8 4 3 4 3 2 2 6 3 9 5 7 5 4 4 2 3 3 4 5 6 9 9 5 8 4 5 5 5 4 5 5 6 6 6 7 7 7 7 8 9 8 9 8 7 8 9 9 9 8 8 9 9 9 10 11 10 9 9 9 8 9 9 9 9 9 9 8 8 8 9 8 9 10 10 10 10 9 10 9 9 9
9 10 10 11 7 4 5 3 3 6 3 2 1 5 5 6 10 8 6 8 5 6 5 6 6 6 9 8 2 8 6 7 6 6 6 7 7 8 8 7 7 8 9 10 9 9 9 9 9 9 9 10 10 10 10 9 9 9 10 11 11 10 9 9 8 8 8 9 9 9 9 9 9 8 7 8 10 10 10 10 9 10 9 10 11 9 8
10 10 10 9 8 4 3 2 3 5 4 3 7 11 5 8 10 9 9 10 7 7 7 7 7 7 7 8 9 9 10 9 9 8 8 9 9 10 10 9 9 10 10 10 10 11 11 11 10 10 10 11 11 11 11 10 11 10 11 11 11 10 9 9 9 9 8 9 9 9 9 9 9 9 8 9 9 10 9 8 8 9 9 10 9 9 9
10 10 11 10 7 4 6 7 7 6 3 8 6 5 6 8 11 9 10 9 9 8 8 7 8 8 10 10 11 11 12 11 11 12 12 12 12 11 11 12 11 11 10 11 12 12 12 12 12 11 11 12 12 11 11 12 12 11 12 12 11 11 11 11 10 9 9 9 9 8 9 10 10 10 9 9 9 8 7 9 9 9 9 7 8 8 6
6 7 9 9 11 4 8 8 5 4 3 6 6 8 8 9 9 11 11 10 9 9 9 9 10 11 11 11 12 12 12 13 13 13 14 14 14 14 14 14 13 12 13 13 13 14 12 12 11 11 12 14 13 12 13 14 12 12 13 12 12 12 11 11 10 10 10 10 9 7 8 10 11 11 8 7 6 6 7 7 9 10 10 9 8 7 6
8 9 9 5 4 4 5 7 6 6 6 7 8 9 11 9 10 9 9 9 8 8 9 10 11 11 12 12 11 11 11 12 13 13 14 14 14 14 15 15 16 16 17 15 15 14 14 13 13 12 13 14 13 14 15 12 13 13 13 13 13 12 11 10 11 11 10 10 10 9 10 11 10 9 6 6 6 7 9 11 10 8 7 8 8 8 7
4 5 7 10 11 10 9 9 9 9 11 11 12 12 12 12 11 10 9 10 10 11 12 14 14 14 14 16 14 14 14 14 14 14 14 15 16 15 15 15 14 15 16 17 16 16 14 15 14 14 13 15 16 17 15 13 14 14 14 14 13 12 12 11 11 11 11 10 11 9 10 9 7 5 9 8 8 9 9 9 8 8 7 7 7 6 5
11 14 15 14 13 13 12 11 11 12 13 14 13 13 12 11 12 12 12 12 14 14 14 15 15 16 16 17 17 17 17 17 17 17 17 17 17 17 17 17 16 17 17 18 19 18 17 15 14 13 14 15 18 17 15 14 14 14 14 14 13 13 12 11 11 11 12 12 10 10 7 6 7 8 10 10 11 10 8 8 9 9 8 5 6 7 6
9 9 4 6 9 12 14 15 15 15 14 14 12 12 12 13 13 13 14 14 15 16 16 17 17 18 17 18 18 19 19 18 18 18 19 18 17 17 18 18 16 16 16 16 17 18 18 16 16 16 18 18 18 18 18 17 16 16 16 16 16 15 14 12 11 11 13 10 8 3 6 6 7 8 10 10 11 10 9 9 9 8 7 8 8 7 6
10 11 13 15 16 15 15 13 13 14 14 14 13 13 13 14 15 16 17 17 19 18 18 18 18 19 18 18 19 18 18 17 17 18 18 19 18 18 17 17 17 17 18 19 19 20 19 18 18 18 19 19 18 18 18 18 17 17 16 16 16 16 15 13 11 11 11 5 8 8 8 9 10 10 8 9 8 7 8 8 7 7 7 7 6 5 5
11 14 15 14 14 14 14 14 13 12 12 14 16 17 17 17 18 18 19 18 19 19 20 19 19 19 19 19 19 20 18 18 18 18 18 19 19 18 18 18 17 18 18 18 20 21 21 19 19 18 19 18 18 19 18 17 16 16 16 15 15 16 14 12 13 11 6 8 8 9 10 9 10 9 7 9 11 10 9 8 8 8 6 6 6 6 5
10 9 11 12 13 12 12 13 15 16 17 17 18 18 19 18 18 18 20 20 19 19 19 18 18 20 19 19 19 20 19 19 20 19 19 19 19 19 18 16 18 19 19 20 21 21 21 19 19 19 19 19 18 18 17 16 16 16 15 15 16 16 13 12 11 9 7 9 9 10 11 12 9 8 13 13 5 8 6 7 11 8 5 5 6 6 6
11 12 15 14 15 16 15 16 17 18 18 18 20 20 20 20 20 19 19 19 19 19 19 17 17 17 17 19 18 19 18 19 19 19 20 20 18 18 18 19 20 20 21 21 22 22 21 20 20 20 19 20 18 18 17 16 14 14 15 14 13 14 12 12 10 7 9 10 8 10 11 11 10 10 9 9 16 15 10 8 14 15 14 15 15 14 7
15 15 14 13 13 17 19 19 20 20 19 19 20 19 17 16 15 16 17 17 17 17 16 16 15 16 17 18 18 19 20 20 20 20 19 19 19 19 18 19 20 22 22 21 21 21 19 19 19 19 19 18 17 15 14 14 14 14 15 13 12 12 10 9 6 7 10 11 9 7 9 10 10 9 10 11 10 13 12 12 15 14 16 15 15 15 15
13 15 16 16 17 19 18 19 18 17 16 15 14 16 13 14 16 15 16 16 15 16 16 16 17 15 17 18 18 18 19 20 20 20 20 18 19 18 19 21 21 19 19 20 19 19 19 18 18 17 17 15 14 16 17 16 16 15 15 13 12 11 10 7 9 9 10 9 10 10 8 8 10 11 11 11 10 9 10 14 15 14 15 15 15 15 14
14 15 15 15 15 15 15 15 15 14 15 15 16 17 17 16 16 16 14 14 14 14 16 16 17 17 17 18 17 18 19 20 18 17 16 17 17 17 18 19 19 19 19 19 18 17 17 18 16 14 15 17 16 13 10 9 10 11 11 10 11 9 8 10 12 11 9 10 9 12 12 11 11 12 10 10 12 11 9 9 9 11 13 13 14 13 12
11 11 12 14 14 13 12 13 15 18 17 16 16 18 17 17 15 13 12 13 14 15 15 16 15 14 14 15 16 15 15 15 15 14 15 16 17 18 17 17 19 19 19 17 17 16 14 13 15 15 12 9 7 7 7 8 8 7 6 6 6 12 15 13 13 11 11 12 11 10 11 11 10 9 7 8 10 11 10 10 9 8 8 6 5 7 8
8 9 8 11 13 14 15 16 16 16 16 16 16 16 15 14 13 14 14 13 12 12 11 11 10 12 12 12 12 13 12 13 15 15 16 17 16 16 17 19 18 18 16 15 11 9 12 10 4 3 4 4 3 4 6 6 7 8 10 10 10 9 9 9 8 6 10 11 9 8 8 9 10 9 9 9 9 10 9 9 9 9 8 7 7 7 9
11 12 10 11 13 14 14 14 15 14 14 14 13 12 12 12 11 11 12 11 9 8 9 10 10 10 10 10 10 11 11 12 13 14 14 14 14 14 15 16 16 15 12 9 9 8 1 3 4 6 7 7 6 6 8 11 12 11 11 12 11 10 9 9 9 11 11 11 11 10 9 7 6 9 9 9 9 9 8 8 8 8 8 9 8 7 7
13 13 13 13 13 14 14 14 12 12 12 13 14 12 9 9 9 7 8 10 10 9 9 9 9 9 9 9 10 10 10 11 10 11 12 11 11 11 12 12 10 8 7 7 4 3 1 3 6 8 9 8 8 8 9 10 11 13 13 13 11 11 9 9 11 11 11 10 11 12 9 8 10 11 10 10 9 8 7 7 8 7 8 8 8 7 6
14 13 14 12 11 10 12 13 13 11 11 11 11 11 11 10 10 9 9 9 9 9 9 9 9 10 10 10 11 11 9 8 9 9 9 8 9 9 7 4 5 6 8 8 9 8 8 7 8 10 10 11 10 10 12 13 13 13 12 11 10 14 15 12 8 8 8 9 9 9 8 8 8 8 8 7 8 7 7 7 7 6 5 6 5 4 4
14 13 13 11 10 13 13 12 9 8 9 10 11 11 11 11 10 10 10 9 9 9 9 10 11 11 12 11 10 9 8 7 6 7 8 8 8 7 5 9 12 14 13 12 11 9 10 10 10 10 9 10 10 9 9 10 10 11 11 10 10 8 8 10 6 7 7 7 8 8 7 9 9 8 7 6 6 6 7 7 6 5 5 5 5 5 4
14 14 13 14 15 14 13 11 7 8 9 9 8 8 9 9 9 9 9 9 10 11 11 11 11 11 11 10 8 8 8 6 8 10 10 9 7 6 9 12 13 14 13 12 10 10 10 12 10 9 9 10 10 10 10 9 9 8 8 8 7 7 6 6 8 7 7 7 8 9 8 8 8 7 6 5 5 5 6 6 6 5 5 5 6 6 5
11 9 10 10 8 8 8 8 8 7 7 8 9 10 10 10 10 10 10 11 12 12 11 11 11 10 10 9 8 9 10 10 10 10 10 9 8 10 12 13 13 15 13 12 11 10 10 9 9 9 10 10 9 9 9 8 7 7 7 7 7 7 7 6 4 5 6 6 7 6 7 4 5 5 4 3 5 5 6 5 5 5 5 6 6 6 6
8 8 8 7 7 8 8 8 8 7 8 8 8 7 8 9 10 10 10 11 11 11 10 10 11 10 9 8 11 12 13 13 12 11 11 9 10 13 12 14 14 15 15 15 14 12 12 11 10 8 9 10 10 9 7 8 7 7 7 8 7 8 8 6 5 6 7 7 6 6 6 6 6 6 5 5 6 6 5 4 4 4 5 5 5 5 6
9 7 6 6 7 8 8 9 8 8 7 6 6 6 9 9 10 11 12 11 10 10 11 11 11 11 13 13 13 12 11 10 9 9 9 10 11 13 15 15 13 13 14 14 15 13 13 11 12 10 7 9 9 11 9 7 8 7 7 8 8 8 7 6 6 7 7 7 7 7 7 8 8 5 4 5 6 6 6 5 4 4 4 4 3 4 4
8 7 6 7 7 8 9 8 8 7 7 7 7 8 9 10 10 9 9 9 10 10 10 11 11 13 13 12 10 10 12 11 11 13 11 9 8 15 14 14 15 14 15 15 13 12 11 11 10 11 12 10 11 11 11 11 7 8 8 9 9 8 7 8 8 8 8 8 8 7 6 6 6 6 5 6 6 6 5 4 4 4 4 4 3 3 2
7 7 7 7 7 8 8 7 7 7 8 8 7 8 9 9 8 8 8 9 9 9 8 8 8 8 8 9 11 14 14 13 12 13 12 11 9 14 15 16 14 14 14 10 11 10 10 9 10 14 13 11 11 11 11 13 8 8 8 9 9 8 8 8 8 8 8 8 6 7 7 6 6 6 6 6 6 6 5 4 4 4 4 3 3 3 2
7 6 7 6 6 6 7 7 7 7 7 8 7 8 8 8 8 8 8 9 9 9 9 9 9 10 11 13 13 14 15 14 12 12 11 13 13 17 15 14 13 12 10 9 10 10 12 11 12 12 11 10 12 12 12 12 10 10 10 10 10 9 9 9 9 9 9 8 7 7 7 7 7 7 6 6 6 5 5 6 5 3 2 2 2 3 3
6 6 6 5 6 5 6 7 7 7 7 7 7 7 7 7 7 8 8 8 9 8 8 9 9 9 10 11 12 13 13 13 13 12 12 10 12 13 12 14 15 13 12 11 10 10 14 16 14 12 12 11 9 8 9 10 10 9 10 9 9 9 9 9 8 8 8 8 8 8 7 7 7 7 6 5 5 4 4 4 4 3 3 3 3 4 3
5 4 4 4 4 5 5 5 5 6 6 7 7 7 8 8 8 8 8 8 8 9 9 9 9 10 11 11 11 11 12 11 13 15 13 11 13 13 13 12 12 13 13 11 10 10 14 16 14 13 12 12 11 9 8 11 10 10 10 10 9 9 9 9 9 8 8 8 7 7 7 7 7 7 6 5 5 5 4 4 4 3 3 4 4 4 3
3 3 3 3 3 3 3 3 4 5 5 5 5 7 8 9 8 8 8 8 8 8 9 10 11 10 9 9 10 10 11 12 12 15 16 16 14 12 13 11 12 11 14 13 12 12 12 13 15 13 11 11 9 10 9 9 10 10 10 10 10 10 9 9 9 9 8 8 8 8 7 7 7 6 6 6 5 5 5 5 4 4 4 5 5 4 4
3 3 3 2 2 2 2 3 3 4 5 6 6 7 7 8 8 8 8 8 8 8 9 9 10 11 11 10 10 10 10 10 11 11 12 14 15 14 12 9 10 11 14 10 11 9 11 11 12 11 12 10 9 11 12 11 11 11 10 11 11 10 10 10 9 8 8 8 8 8 7 7 6 6 6 6 5 5 5 6 5 5 5 5 5 4 4
3 2 3 3 3 2 3 3 3 3 4 5 5 6 7 7 7 7 8 8 9 9 10 9 9 10 10 11 11 10 10 10 9 8 7 8 11 13 13 10 8 10 14 9 10 9 10 10 10 12 13 13 13 13 11 11 11 11 11 11 10 10 10 9 9 9 8 8 8 7 7 7 7 6 6 6 6 6 6 6 6 6 5 5 5 5 4
5 4 4 4 4 3 3 3 3 4 3 3 4 5 5 6 6 7 7 7 8 8 9 9 10 9 8 8 9 9 9 9 9 9 9 8 9 10 11 11 10 9 11 11 9 9 10 11 12 14 12 12 12 12 11 10 10 10 10 10 10 10 9 9 9 8 8 8 8 7 7 7 7 7 7 7 7 6 6 6 6 6 6 6 5 5 5
6 5 5 4 3 3 3 3 3 2 2 2 3 4 4 4 5 5 6 7 7 7 8 8 9 10 10 8 6 7 8 8 9 10 9 9 9 8 8 9 9 9 11 11 9 9 9 13 15 13 12 12 11 10 10 10 10 10 10 10 9 9 9 8 8 8 8 8 7 7 7 7 7 7 6 6 6 5 5 5 4 5 5 5 5 5 4
5 5 5 5 4 4 4 3 2 2 1 0 2 3 3 3 4 4 5 5 6 6 7 8 8 9 9 9 8 7 6 6 7 8 8 7 8 8 8 9 9 9 9 10 10 10 10 10 11 12 11 10 12 10 10 9 10 10 10 9 9 9 8 8 8 8 8 7 7 7 7 7 7 6 6 5 5 5 4 4 4 4 4 4 4 4 4
6 5 5 5 5 5 4 3 4 3 1 2 2 2 2 2 2 3 3 4 5 5 6 6 7 7 8 8 8 9 8 6 7 7 7 7 7 7 8 8 8 9 4 9 10 11 15 15 13 12 11 11 10 10 11 10 10 9 9 9 8 8 8 7 7 7 7 7 6 6 6 6 6 5 5 5 5 4 4 4 4 4 4 4 4 5 5
7 6 5 5 5 5 4 4 3 2 1 2 1 2 1 1 1 2 2 2 2 3 4 5 5 6 6 7 7 6 7 7 7 6 6 6 6 7 7 8 10 10 7 7 8 9 10 11 13 11 11 12 10 10 10 10 10 9 9 9 8 8 7 7 6 6 6 6 6 6 5 6 5 5 5 5 4 4 4 4 4 4 5 4 4 5 5
7 6 6 5 5 5 5 4 3 1 2 2 1 1 1 2 1 2 2 2 3 2 3 4 4 4 4 5 5 5 6 6 6 6 6 7 7 6 7 8 8 9 9 7 8 8 9 10 11 11 10 10 10 9 9 9 9 9 8 7 7 6 7 7 7 7 6 6 6 6 5 5 5 5 5 4 4 4 4 4 4 4 4 4 5 5 5
8 7 6 6 5 5 4 3 1 1 2 2 2 2 1 1 2 2 2 2 0 2 2 3 3 4 4 4 4 5 4 5 5 5 4 4 5 7 7 6 7 7 7 7 7 7 8 9 9 8 9 9 9 8 8 8 7 7 7 6 6 5 5 6 5 6 6 5 5 5 5 5 4 4 4 4 4 4 3 3 3 4 4 4 5 5 4
9 8 7 6 6 5 4 4 3 3 2 3 3 3 2 0 2 2 3 1 2 2 2 3 4 4 3 4 4 5 5 5 3 4 4 4 4 4 5 5 5 6 7 7 7 7 7 8 8 10 9 8 8 7 7 7 7 7 6 5 6 6 6 5 4 4 4 4 4 4 4 4 4 4 4 4 4 4 4 4 4 3 4 4 4 4 4
Wind_Direction
267 265 270 276 275 271 275 277 279 273 270 260 251 251 258 267 261 268 281 285 274 256 255 275 262 222 235 219 198 198 183 175 172 171 173 177 173 166 155 131 109 89 80 74 69 59 59 53 61 65 63 79 79 72 56 46 42 36 27 23 22 25 20 16 10 349 325 313 305 288 279 278 276 271 263 254 251 247 236 224 223 222 212 189 188 188 178
269 268 267 265 263 262 261 260 262 264 263 262 260 256 257 257 257 259 269 271 277 257 267 270 291 259 228 233 217 174 184 183 176 179 183 184 176 171 157 138 114 92 67 54 49 43 27 17 13 13 27 16 36 28 42 44 53 43 28 23 18 13 16 19 344 326 312 297 287 289 281 276 272 270 271 268 260 251 246 239 227 222 210 178 172 169 177
270 268 269 266 262 262 263 261 261 260 259 258 256 259 256 257 265 267 272 282 268 266 269 270 265 354 243 212 184 201 193 185 183 187 187 184 179 164 150 137 123 103 103 85 59 28 24 7 0 5 8 353 3 358 8 5 9 4 3 352 357 0 3 349 322 309 308 305 296 286 286 280 271 264 261 262 260 256 250 243 231 170 156 142 136 174 198
268 266 266 265 266 266 265 261 256 256 255 255 251 252 253 253 259 263 260 257 262 266 257 254 256 235 234 232 225 192 181 182 185 191 190 182 175 167 157 146 132 122 106 81 38 23 359 350 348 353 353 348 352 352 0 344 342 344 341 330 339 343 342 335 324 315 304 301 297 294 284 277 271 266 260 253 251 256 254 229 190 182 176 181 187 184 186
273 279 280 273 279 282 270 257 250 246 246 253 258 260 261 254 254 259 256 259 282 357 292 257 239 237 254 256 234 185 174 178 184 191 190 179 173 158 146 138 131 105 64 49 31 1 329 347 329 336 340 328 331 332 328 330 330 324 322 323 322 321 316 314 314 311 307 301 301 293 284 280 272 262 258 254 246 236 232 229 229 214 192 192 187 180 165
274 274 267 284 270 256 265 55 23 24 291 279 270 268 271 281 270 271 287 296 340 313 294 275 282 253 150 127 97 86 166 172 184 192 188 179 160 151 147 141 154 85 28 6 357 343 326 317 327 331 313 311 311 310 311 317 321 321 319 321 318 312 303 301 304 303 300 299 294 293 287 278 265 256 245 252 249 236 228 227 227 225 206 188 180 168 154
268 274 275 262 253 257 71 65 57 9 339 308 296 289 356 322 301 299 289 290 296 318 338 0 85 98 111 120 143 157 154 174 182 188 187 183 174 166 162 97 20 13 351 332 328 315 309 328 308 294 296 302 308 303 311 313 313 312 312 317 316 309 304 305 308 310 309 305 297 290 286 280 268 256 247 243 248 247 233 221 218 214 198 179 168 159 158
267 260 246 254 251 59 91 94 53 50 250 299 295 264 70 16 355 295 273 357 14 46 60 85 92 112 128 129 116 104 97 94 142 207 211 202 180 177 346 352 337 329 328 318 304 302 305 288 299 302 309 307 305 308 310 311 314 318 322 319 317 318 316 319 320 322 315 307 298 290 284 278 264 255 244 234 234 237 236 228 214 204 187 173 163 157 141
255 257 257 261 284 268 256 240 36 4 354 339 317 277 232 35 12 351 322 334 319 295 26 33 88 158 182 174 133 120 94 79 70 65 55 34 303 314 316 308 321 317 303 295 304 301 292 300 302 307 309 312 307 309 312 315 319 318 319 317 316 317 316 321 324 319 316 307 300 290 280 271 260 250 244 235 231 229 227 223 211 189 167 161 157 149 137
248 259 268 266 257 254 279 105 90 33 19 355 312 294 271 93 18 10 335 333 345 316 284 246 292 246 218 229 178 98 71 63 51 36 6 312 262 274 303 305 298 301 304 302 297 299 299 294 295 296 300 300 301 297 301 306 308 309 310 310 310 311 313 317 317 316 311 306 298 291 279 268 260 245 238 238 232 226 227 223 215 188 163 153 151 137 128
257 252 259 262 267 280 79 73 47 26 33 331 337 248 248 83 4 4 338 308 316 298 327 304 280 239 248 241 164 66 3 17 8 346 334 323 326 313 307 312 313 310 308 303 295 289 287 288 293 294 292 294 289 287 288 291 294 296 297 298 302 307 310 309 307 307 305 301 296 287 279 269 259 248 238 236 236 226 225 224 215 197 167 152 133 130 135
254 267 261 262 262 270 77 35 16 30 10 47 240 259 237 42 358 340 339 318 315 302 311 293 284 270 261 263 150 28 344 339 334 326 323 318 311 305 306 302 309 313 305 296 291 293 294 295 294 290 288 284 283 279 279 277 279 282 287 291 297 298 297 298 296 293 292 291 285 278 273 270 258 249 246 240 236 229 224 221 210 191 164 130 131 130 130
257 250 259 266 273 14 31 9 352 12 16 308 258 252 1 328 327 328 340 311 310 304 300 286 274 270 291 312 329 328 319 313 315 317 311 308 310 308 308 311 318 301 299 298 298 297 295 294 291 288 286 283 280 279 277 276 274 276 281 287 291 292 291 288 285 285 288 286 283 276 268 266 263 250 240 239 236 231 223 210 195 176 148 124 126 127 129
260 257 259 257 265 82 17 23 323 312 266 250 270 4 290 316 319 321 312 309 296 299 295 296 287 310 314 300 294 297 305 312 311 309 310 311 311 309 305 307 301 298 297 294 294 290 288 288 287 284 281 279 277 278 276 273 277 278 280 285 287 285 283 283 282 281 282 282 280 274 265 257 256 253 243 238 230 217 199 183 146 106 95 93 98 100 105
268 258 263 262 256 92 13 3 332 17 310 320 344 302 310 293 300 305 299 293 295 293 292 286 281 278 283 286 292 299 303 305 307 307 308 308 306 307 308 304 303 302 296 292 291 291 289 286 284 282 279 275 273 270 266 268 271 272 275 280 281 278 278 279 279 277 277 279 274 264 257 253 250 250 236 224 213 174 161 136 112 111 107 107 111 124 143
273 263 249 250 21 0 345 351 311 332 312 325 316 310 293 305 295 301 311 304 311 325 308 301 296 295 295 294 287 287 291 292 292 295 295 296 297 297 297 298 298 298 292 286 282 282 283 281 279 276 273 271 268 266 265 269 267 268 271 271 272 270 267 266 268 267 270 274 271 263 253 248 244 249 215 182 143 134 124 117 109 96 101 113 130 138 138
286 281 293 318 315 301 307 294 299 292 294 293 292 291 290 289 291 294 292 291 289 288 289 287 288 287 282 284 287 286 286 287 285 287 290 292 293 293 291 288 287 282 280 281 280 279 277 276 274 272 269 269 271 269 270 270 267 266 265 267 265 263 259 259 259 262 267 271 272 263 256 245 227 132 129 138 130 129 116 113 112 117 127 125 129 140 134
277 276 278 284 284 288 295 297 294 296 295 289 286 287 288 287 292 292 288 294 293 291 290 288 283 281 283 283 283 285 285 286 287 286 285 285 285 284 282 280 278 279 279 280 281 279 278 275 273 268 266 267 270 272 273 268 268 267 267 266 265 263 262 258 258 259 259 261 262 262 241 200 168 162 156 147 137 135 123 125 130 133 132 158 161 132 139
293 275 273 271 283 291 292 294 294 290 285 282 288 290 287 288 288 287 285 287 291 291 288 283 282 281 283 284 285 285 285 285 287 289 288 287 285 285 285 285 285 281 277 277 277 278 277 275 274 273 271 271 270 271 270 269 267 266 263 263 264 261 258 258 255 254 253 256 254 210 161 164 169 165 154 141 135 132 133 137 132 131 152 147 138 147 148
268 279 289 291 292 290 291 292 293 289 291 294 292 290 289 287 288 286 286 286 284 286 283 284 284 286 285 284 285 285 284 284 283 283 283 284 284 282 282 283 281 281 280 280 283 285 284 283 282 281 278 274 271 270 270 268 266 262 259 256 256 257 256 253 249 242 243 161 159 174 175 170 158 149 143 141 126 119 128 131 133 141 129 135 136 145 154
286 283 281 284 292 293 290 288 287 294 296 294 296 296 295 292 287 284 281 279 279 279 280 283 284 284 282 282 284 285 287 287 285 284 285 286 286 287 286 286 284 281 284 284 284 283 282 282 281 278 276 275 275 274 272 269 264 262 258 254 249 248 248 248 243 241 226 153 169 171 165 159 152 140 142 136 131 131 142 155 135 124 136 141 152 162 157
282 290 303 319 306 299 297 294 297 299 300 298 295 294 290 288 287 287 284 280 279 278 278 277 276 276 279 281 283 283 283 284 285 285 286 287 287 287 286 284 283 284 283 283 283 282 283 283 280 278 277 276 275 273 271 269 266 259 254 248 246 242 238 238 242 221 196 170 172 167 155 150 121 83 44 34 59 128 119 77 106 117 123 125 121 143 114
290 300 305 305 297 289 288 297 302 303 303 302 299 296 296 294 294 296 294 292 288 282 278 275 277 279 283 285 286 284 284 284 286 287 287 287 286 285 286 285 285 285 286 285 284 282 281 281 280 278 276 275 275 272 268 264 255 249 248 243 234 233 228 229 227 208 168 168 162 162 154 138 127 126 114 66 45 48 67 94 88 83 77 71 59 44 60
289 293 302 307 299 292 299 301 300 298 298 296 293 292 293 294 300 301 298 295 292 288 287 285 283 284 284 283 285 285 284 284 285 286 285 284 285 287 288 287 287 287 287 285 284 283 283 282 281 280 278 278 275 272 264 254 248 245 239 236 230 226 217 216 167 157 167 160 149 137 141 138 133 118 113 111 86 50 58 90 96 93 90 83 75 70 56
296 299 296 296 296 296 296 295 297 299 301 305 307 302 302 300 295 293 292 292 291 287 285 285 288 288 287 285 285 285 286 287 286 287 290 290 289 288 286 286 285 282 281 282 282 283 284 283 283 283 281 277 273 268 262 251 244 238 230 221 218 213 211 172 153 156 155 151 138 134 155 143 125 134 127 112 106 108 75 64 73 81 84 85 84 80 76
297 296 296 296 293 292 297 302 298 303 305 301 295 295 295 294 298 298 288 286 288 288 286 286 285 285 286 287 288 289 289 288 293 299 293 289 287 286 283 281 281 282 283 284 286 287 287 288 290 289 282 275 268 263 263 253 238 234 220 201 196 206 186 159 159 157 147 147 150 156 152 148 142 132 129 133 129 121 117 115 93 71 61 72 85 87 82
309 307 312 311 305 307 312 310 308 310 308 306 303 300 298 294 290 287 291 289 288 287 284 284 285 292 296 295 296 296 291 292 291 285 281 282 282 282 283 284 285 286 286 285 285 287 294 289 279 271 271 280 281 268 250 236 226 217 198 157 134 118 132 150 151 152 156 146 145 147 128 126 120 117 124 133 132 138 147 145 137 130 129 115 86 78 104
315 310 311 305 306 305 304 304 304 305 304 303 304 302 299 298 298 295 295 294 290 296 303 314 321 320 310 304 300 293 288 284 286 290 291 289 289 288 285 283 282 280 280 280 284 288 277 271 285 327 336 330 301 233 217 206 177 140 122 118 120 120 121 121 120 131 122 123 115 110 118 117 130 143 150 146 151 156 153 146 140 138 136 127 120 95 101
326 318 317 305 297 295 302 306 300 300 305 311 309 302 305 305 306 303 302 305 318 337 334 334 329 321 315 311 307 302 301 300 299 298 296 296 297 292 286 279 275 273 273 276 273 261 231 65 35 53 58 56 57 78 108 116 113 113 113 111 112 108 104 106 119 122 119 116 119 125 128 143 151 141 142 155 160 154 153 151 146 145 136 134 136 140 141
326 324 319 312 308 309 309 307 315 325 328 329 330 328 326 320 322 356 20 14 3 355 348 337 330 325 321 315 316 317 314 307 305 305 303 301 299 304 300 279 263 252 228 210 162 117 122 57 47 62 82 81 67 64 79 87 92 97 100 103 106 108 113 113 111 111 116 120 127 136 154 180 159 150 159 158 155 150 149 146 151 148 150 147 152 157 162
321 316 315 315 314 315 320 327 332 343 350 354 9 15 19 21 24 21 14 8 6 354 350 348 342 337 340 337 333 328 319 305 299 309 321 322 328 319 331 56 107 98 73 49 30 19 13 15 17 21 37 59 57 57 77 85 89 89 90 86 80 89 90 85 95 115 117 126 137 156 165 150 142 144 139 142 145 145 144 146 154 153 147 145 159 127 120
318 327 324 329 339 337 333 333 345 6 4 14 19 25 25 24 25 20 14 12 10 4 359 358 357 350 342 334 330 323 321 317 330 352 351 347 340 335 24 66 67 63 56 45 35 25 21 18 17 13 14 21 30 36 50 65 71 80 85 91 95 95 99 104 102 102 120 132 150 155 147 145 142 135 141 147 148 142 147 147 148 144 136 131 122 109 88
335 336 339 340 342 336 331 343 16 19 23 22 27 27 31 31 30 28 24 16 14 12 8 360 355 348 338 335 334 349 345 350 13 12 5 3 359 16 55 57 58 56 50 41 35 30 22 13 8 6 20 26 27 34 50 59 63 68 70 73 78 83 75 76 92 108 124 146 149 145 141 137 139 145 145 146 136 141 137 138 139 134 132 127 109 89 71
339 333 328 338 341 338 348 20 31 29 35 33 34 36 35 36 36 32 25 20 15 10 3 355 347 340 340 333 350 6 14 25 20 5 350 356 18 53 57 58 58 56 50 39 34 31 21 8 6 21 23 31 34 36 44 73 85 83 91 97 98 98 97 98 103 120 119 107 106 104 107 108 117 119 124 127 134 130 130 137 129 129 127 120 112 107 90
337 337 3 22 26 30 37 43 43 42 39 37 28 34 38 36 31 28 21 21 15 3 356 354 356 353 349 354 13 14 23 23 12 3 0 1 37 50 55 54 53 51 48 40 34 32 28 18 4 17 38 46 48 47 51 58 72 89 92 98 101 105 104 105 105 109 107 103 103 98 89 86 81 75 85 102 105 104 103 102 112 123 121 115 115 117 102
360 14 39 44 40 50 53 53 52 49 45 36 25 34 42 36 31 27 22 19 11 6 4 358 352 355 9 12 16 13 16 11 7 10 18 29 41 54 52 44 42 46 48 44 29 28 31 23 3 4 49 51 52 48 44 59 81 78 88 90 90 86 86 85 79 75 74 80 75 72 71 68 71 76 90 97 95 99 101 100 103 104 100 97 93 93 110
33 46 56 56 58 61 61 57 55 55 51 40 35 38 40 39 35 31 26 23 15 8 2 1 2 5 2 358 2 8 14 11 14 22 23 23 39 57 54 50 37 36 35 34 9 8 21 26 1 34 48 49 47 44 29 29 77 88 97 93 94 95 91 85 80 82 79 77 82 88 92 91 84 78 72 77 79 77 83 94 86 78 76 78 86 103 98
50 55 58 62 69 73 71 69 65 62 57 50 40 39 35 35 34 32 29 23 16 10 7 7 6 358 359 2 16 20 16 9 6 18 21 23 20 55 47 44 34 30 30 15 355 4 18 15 27 47 43 39 42 41 24 19 25 69 82 79 82 80 80 82 82 81 80 78 76 77 76 77 80 76 71 68 68 65 63 64 62 67 78 81 79 70 73
57 53 56 56 63 69 65 54 46 40 40 44 38 32 32 33 32 32 31 27 21 17 21 22 19 25 27 29 31 28 24 16 5 355 6 25 37 54 54 47 41 33 21 358 10 20 13 18 48 48 49 39 43 41 28 16 33 69 71 76 76 78 76 79 77 75 69 65 61 66 69 64 65 67 67 68 71 74 66 58 65 71 71 75 77 72 65
52 55 55 60 56 47 45 39 35 30 25 32 36 34 28 34 36 37 39 39 32 26 26 28 32 34 37 40 42 41 35 28 21 10 3 8 31 42 45 39 28 22 13 5 16 27 28 28 41 52 50 37 38 50 41 25 45 63 64 68 69 68 69 71 75 77 78 80 80 75 75 72 68 68 68 70 74 69 79 84 84 85 89 79 70 64 58
51 49 58 65 59 49 44 38 35 39 37 23 18 25 32 36 34 32 30 33 37 38 38 28 28 38 41 44 46 51 51 44 37 33 24 25 37 41 41 33 14 12 9 8 16 22 34 39 37 39 42 44 38 21 44 46 53 59 59 59 63 64 66 63 66 68 70 71 70 72 75 79 78 75 73 72 68 70 71 69 70 64 58 56 58 56 49
61 62 71 69 63 51 41 46 54 46 32 31 31 35 39 38 38 34 30 27 32 35 41 42 33 26 31 37 46 45 48 52 52 47 41 42 38 38 41 35 19 12 357 9 15 21 28 33 36 33 30 38 41 16 33 57 57 58 58 57 60 61 65 67 70 71 73 73 74 76 75 76 76 77 76 74 70 68 67 64 60 54 51 49 48 42 35
92 115 104 82 67 78 89 73 71 61 45 37 39 39 39 37 35 34 32 30 26 27 31 34 35 35 34 32 34 39 37 37 48 59 61 55 49 44 43 37 30 14 1 24 25 31 31 36 34 31 7 13 23 19 45 53 54 55 58 59 61 61 63 63 65 68 68 71 71 72 73 75 76 76 74 73 71 67 61 55 50 45 43 42 42 37 31
117 138 148 155 155 138 118 96 73 62 60 45 36 40 41 42 36 34 33 31 29 26 25 27 28 32 37 37 35 34 30 27 27 34 50 60 54 45 35 28 26 15 5 21 34 34 34 29 25 4 5 14 24 39 51 53 55 58 59 59 59 59 60 61 62 64 67 70 72 75 76 76 76 74 74 72 70 66 60 54 51 46 43 40 36 33 29
140 162 174 151 145 146 127 113 101 81 65 61 48 37 36 42 41 34 32 34 34 32 30 27 26 23 25 34 46 46 42 36 32 28 38 42 44 39 27 29 28 28 15 9 39 40 39 31 10 6 13 18 32 40 55 56 57 59 61 62 63 63 63 63 64 66 68 72 75 76 77 77 78 77 76 71 69 66 63 58 54 47 43 37 34 28 25
154 151 141 145 137 115 100 102 102 109 110 96 81 64 41 40 42 41 36 33 36 35 36 34 33 29 24 23 35 58 68 57 48 47 51 48 52 47 33 33 36 28 25 28 36 32 37 19 10 0 7 22 34 51 55 57 58 58 59 61 63 64 64 65 64 67 67 69 71 73 77 79 79 76 72 72 70 66 61 49 52 47 39 31 28 18 5
160 153 151 144 139 144 156 164 164 189 196 113 58 61 54 39 37 44 45 42 40 40 40 42 40 36 32 30 26 23 32 54 64 51 51 59 63 59 58 50 45 40 46 44 40 38 32 20 7 358 1 30 46 52 52 55 57 60 60 62 60 63 63 64 64 69 71 71 71 75 76 78 80 81 76 69 66 58 56 50 46 37 29 22 15 15 10
182 172 159 164 166 167 185 190 210 218 146 62 44 68 60 61 49 51 49 48 47 47 46 47 49 44 34 35 41 36 24 28 50 52 43 49 55 55 49 40 16 334 31 84 67 46 27 15 5 1 16 40 54 55 55 54 55 56 61 61 61 59 58 59 62 68 76 77 75 79 80 78 72 68 66 64 59 53 48 43 39 31 24 19 16 8 2
189 179 173 180 179 185 201 206 218 230 161 102 172 85 93 128 130 106 67 59 60 68 66 61 55 58 62 51 39 45 47 38 43 52 43 38 46 46 53 49 32 16 35 47 49 54 40 21 13 10 40 51 55 55 55 56 56 57 57 59 64 57 53 53 49 52 57 57 59 62 66 64 65 65 66 61 61 59 55 51 47 38 25 16 12 7 4
194 191 192 194 197 201 208 209 215 186 124 167 177 115 145 231 197 77 55 50 48 39 58 56 60 58 53 55 55 55 52 49 54 60 59 49 44 45 50 47 42 34 32 38 43 50 57 49 42 35 47 57 56 56 56 56 58 56 57 55 55 59 47 48 62 59 61 66 64 60 60 63 67 68 63 62 62 62 60 58 56 54 41 30 25 12 9
200 204 206 202 209 202 204 238 267 134 157 160 152 122 192 252 67 64 59 355 286 88 81 87 69 64 61 62 64 60 61 80 66 36 49 73 70 57 36 50 55 40 41 43 47 45 49 45 36 36 54 59 59 51 45 47 53 52 48 53 54 52 52 50 53 57 54 48 52 60 64 67 59 52 56 56 51 48 47 44 42 41 33 29 24 17 9
214 210 210 207 205 198 195 191 189 204 186 176 173 179 192 98 129 140 118 277 295 72 65 80 79 65 57 74 67 64 58 39 48 85 64 46 41 68 74 47 51 55 47 47 49 51 55 56 50 36 33 52 58 57 54 45 48 50 49 48 52 60 52 44 45 46 45 40 42 51 50 36 33 55 54 48 42 42 40 41 32 33 36 27 19 9 9